Tracking 19709 objects as of 17-Jun-2019
HD Live streaming from Space Station
objects crossing your sky now

THORAD AGENA D DEB

Track THORAD AGENA D DEB now!
10-day predictions


NORAD ID: 5220
Int'l Code: 1970-025KG
Perigee: 1,007.6 km
Apogee: 1,610.8 km
Inclination: 99.9 °
Period: 111.6 minutes
Semi major axis: 7680 km
RCS: 0.0252 m2 (small)
Launch date: April 8, 1970
Source: United States (US)
Launch site: AIR FORCE WESTERN TEST RANGE (AFWTR)

Note: This is SATELLITE DEBRIS
aabbcc
Your satellite tracking list
Your tracking list is empty




NASA's NSSDC Master Catalog

Two Line Element Set (TLE):
1  5220U 70025KG  19167.27499244  .00000378  00000-0  11401-2 0  9995
2  5220  99.8574 288.0954 0392694 313.4566  71.5794 12.89860435301441
Source of the keplerian elements: AFSPC